Content
SEND FEEDBACK

Daily
Averages
Monthly
Summary
United States of America

CRESTED BUTTE, COLORADO


Home > North America > United States > Colorado
Elevation: 9277 feet     Latitude: 38 52N     Longitude: 106 58W

WEATHER
 
SELECT A DAY
Number of Records: 458,686;   Date Range: 1/1/95 - 12/18/14
 
SHARE

PRINT THIS DATA

[ ← Previous Day ]
WEATHER ALMANAC - AUGUST 18, 2014
[ Next Day → ]
[ °C ]   °F
Weather ElementAverageHighLow
Temperature63.8 °F80.6 °F (5:15 pm)42.8 °F (5:55 am)
Dewpoint35.1 °F39.2 °F (5:15 am)30.2 °F (4:35 pm)
Humidity38.5 %70 % (5:55 am)17 % (4:35 pm)
Barometer30.31 in30.41 in (5:15 am)30.19 in (5:55 pm)
Wind Speed5.8 mph18.4 mph (4:55 pm)
Wind Gust25.3 mph (2:55 pm)
Weather ElementAverage
Visibility10 mi
Wind DirectionESE (110.1 °)

Weather ElementTotal
Precipitation---
Heating Degree Days3.3 (Base 65)
Growing Degree Days11.7 (Base 50)
Averaged from 70 records on August 18, 2014
WEATHER CONDITIONS BREAKOUT
WIND DIRECTION BREAKOUT
WEATHER BY HOUR - AUGUST 18, 2014
[ °C ]   °F
Local TimeTemperatureDewpointHumidityBarometerVisibilityWind DirectionWind SpeedGust SpeedPrecipitationEventsConditions
12:15 AM51.8 °F33.8 °F50 %30.37 in10.0 miCalmClear
12:35 AM51.8 °F35.6 °F54 %30.37 in10.0 miCalmClear
12:55 AM51.8 °F35.6 °F54 %30.37 in10.0 miNorth (10°)4.6 mphScattered Clouds
1:15 AM53.6 °F35.6 °F51 %30.37 in10.0 miNorth (10°)5.8 mphScattered Clouds
1:35 AM51.8 °F33.8 °F50 %30.37 in10.0 miNNE (20°)5.8 mphPartly Cloudy
1:55 AM50.0 °F33.8 °F54 %30.36 in10.0 miNNE (20°)4.6 mphClear
2:15 AM50.0 °F33.8 °F54 %30.36 in10.0 miNNE (30°)6.9 mphClear
2:35 AM48.2 °F33.8 °F58 %30.36 in10.0 miCalmClear
2:55 AM48.2 °F33.8 °F58 %30.37 in10.0 miENE (60°)3.5 mphClear
3:15 AM46.4 °F33.8 °F62 %30.37 in10.0 miCalmClear
3:35 AM44.6 °F32.0 °F61 %30.37 in10.0 miCalmClear
3:55 AM44.6 °F33.8 °F66 %30.38 in10.0 miSouth (190°)6.9 mphClear
4:15 AM46.4 °F33.8 °F62 %30.39 in10.0 miWSW (250°)3.5 mphClear
4:35 AM44.6 °F33.8 °F66 %30.37 in10.0 miNNE (20°)3.5 mphClear
4:55 AM44.6 °F33.8 °F66 %30.38 in10.0 miNNE (30°)8.1 mphClear
5:15 AM48.2 °F33.8 °F58 %30.38 in10.0 miNNE (30°)5.8 mphClear
5:35 AM42.8 °F32.0 °F66 %30.39 in10.0 miCalmClear
5:55 AM42.8 °F33.8 °F70 %30.39 in10.0 miNE (40°)4.6 mphClear
6:15 AM44.6 °F33.8 °F66 %30.39 in10.0 miNorth (360°)5.8 mphClear
6:35 AM44.6 °F33.8 °F66 %30.40 in10.0 miCalmClear
6:55 AM42.8 °F32.0 °F66 %30.41 in10.0 miWSW (250°)5.8 mphClear
7:15 AM48.2 °F35.6 °F62 %30.41 in10.0 miSE (130°)8.1 mphClear
7:35 AM50.0 °F35.6 °F58 %30.40 in10.0 miCalmClear
7:55 AM51.8 °F33.8 °F50 %30.39 in10.0 miNNW (340°)4.6 mphPartly Cloudy
8:15 AM53.6 °F33.8 °F47 %30.40 in10.0 miNorth (360°)5.8 mphClear
8:35 AM55.4 °F35.6 °F47 %30.40 in10.0 miNNE (20°)8.1 mphClear
8:55 AM60.8 °F35.6 °F39 %30.39 in10.0 miENE (60°)5.8 mphClear
9:15 AM60.8 °F35.6 °F39 %30.39 in10.0 miNorth (360°)4.6 mphClear
9:35 AM62.6 °F35.6 °F37 %30.38 in10.0 miNNW (340°)5.8 mphClear
9:55 AM64.4 °F37.4 °F37 %30.37 in10.0 miNorth (10°)5.8 mphClear
10:15 AM64.4 °F37.4 °F37 %30.37 in10.0 miNNW (340°)3.5 mphClear
10:35 AM66.2 °F37.4 °F35 %30.37 in10.0 miCalmClear
10:55 AM69.8 °F37.4 °F31 %30.36 in10.0 miCalmClear
11:15 AM69.8 °F37.4 °F31 %30.35 in10.0 miCalmClear
11:35 AM71.6 °F37.4 °F29 %30.34 in10.0 miSouth (190°)3.5 mphClear
11:55 AM73.4 °F37.4 °F27 %30.33 in10.0 miCalmClear
12:15 PM73.4 °F37.4 °F27 %30.32 in10.0 miWest (260°)4.6 mphClear
12:35 PM77.0 °F37.4 °F24 %30.31 in10.0 miCalmClear
12:55 PM77.0 °F37.4 °F24 %30.31 in10.0 miWNW (300°)11.5 mph25.3 mphClear
1:15 PM78.8 °F35.6 °F21 %30.29 in10.0 miNNW (340°)16.1 mph21.9 mphClear
1:35 PM78.8 °F33.8 °F20 %30.29 in10.0 miWNW (290°)3.5 mph17.3 mphClear
1:55 PM80.6 °F33.8 °F18 %30.28 in10.0 miESE (110°)4.6 mphClear
2:15 PM78.8 °F33.8 °F20 %30.27 in10.0 miNorth (350°)13.8 mph18.4 mphScattered Clouds
2:35 PM78.8 °F35.6 °F21 %30.27 in10.0 miNNE (30°)9.2 mph18.4 mphPartly Cloudy
2:55 PM78.8 °F35.6 °F21 %30.26 in10.0 miNorth (10°)12.7 mph16.1 mphScattered Clouds
3:15 PM78.8 °F33.8 °F20 %30.25 in10.0 miNorth (10°)8.1 mph17.3 mphPartly Cloudy
3:35 PM80.6 °F33.8 °F18 %30.24 in10.0 miNorth (10°)8.1 mphClear
3:55 PM80.6 °F33.8 °F18 %30.23 in10.0 miNorth (10°)12.7 mphClear
4:15 PM78.8 °F33.8 °F20 %30.22 in10.0 miNNE (30°)9.2 mphClear
4:35 PM80.6 °F33.8 °F18 %30.22 in10.0 miNE (40°)10.4 mph18.4 mphClear
5:15 PM80.6 °F33.8 °F18 %30.21 in10.0 miNNE (20°)9.2 mphClear
5:35 PM80.6 °F33.8 °F18 %30.20 in10.0 miNNE (30°)6.9 mphClear
5:55 PM78.8 °F30.2 °F17 %30.19 in10.0 miNNW (340°)4.6 mphClear
6:15 PM78.8 °F33.8 °F20 %30.19 in10.0 miNNE (30°)5.8 mphClear
6:35 PM77.0 °F39.2 °F26 %30.19 in10.0 miNorth (360°)4.6 mphClear
6:55 PM78.8 °F37.4 °F23 %30.19 in10.0 miNNE (30°)8.1 mphClear
7:15 PM78.8 °F32.0 °F18 %30.19 in10.0 miNNE (20°)6.9 mphPartly Cloudy
7:35 PM77.0 °F37.4 °F24 %30.19 in10.0 miNNE (20°)5.8 mphScattered Clouds
7:55 PM75.2 °F33.8 °F22 %30.21 in10.0 miNNE (30°)6.9 mphMostly Cloudy
8:15 PM73.4 °F33.8 °F23 %30.21 in10.0 miESE (120°)18.4 mph23.0 mphOvercast
8:35 PM71.6 °F35.6 °F27 %30.22 in10.0 miSE (140°)13.8 mphScattered Clouds
8:55 PM69.8 °F35.6 °F28 %30.23 in10.0 miSSE (160°)8.1 mphClear
9:15 PM68.0 °F35.6 °F30 %30.24 in10.0 miSE (130°)6.9 mphClear
9:35 PM68.0 °F35.6 °F30 %30.25 in10.0 miCalmScattered Clouds
10:15 PM64.4 °F37.4 °F37 %30.26 in10.0 miEast (80°)9.2 mphPartly Cloudy
10:35 PM66.2 °F37.4 °F35 %30.26 in10.0 miEast (100°)11.5 mphScattered Clouds
10:55 PM66.2 °F37.4 °F35 %30.27 in10.0 miEast (100°)8.1 mphMostly Cloudy
11:15 PM66.2 °F37.4 °F35 %30.26 in10.0 miNE (40°)5.8 mphMostly Cloudy
11:35 PM64.4 °F39.2 °F40 %30.27 in10.0 miNNW (340°)4.6 mphMostly Cloudy
11:55 PM64.4 °F37.4 °F37 %30.27 in10.0 miNorth (360°)6.9 mphOvercast
Hourly data recorded from KGUC, located miles away from Crested Butte, Colorado







STORIES FROM OUR PARTNERS